GW5131 Weather Reports


Display with metric or nautical units.
time (UTC)temp
F
wind
direction
speed
MPH
gust
MPH
rain 1hr
in
rain 24hr
in
rain mn
in
humidity
%
barometer
mb
20260504183030 72 173 5.0 8.0 0.00 0.00 0.00 44 975.6
20260504182526 71 122 3.0 4.0 0.00 0.00 0.00 45 975.6
20260504182024 71 129 3.0 11.0 0.00 0.00 0.00 45 975.8
20260504181521 71 96 2.0 15.0 0.00 0.00 0.00 48 975.8
20260504181019 70 121 1.0 11.0 0.00 0.00 0.00 48 976.2
20260504180518 71 167 5.0 9.0 0.00 0.00 0.00 51 976.4
20260504180016 70 266 3.0 9.0 0.00 0.00 0.00 46 976.2
20260504175513 69 114 3.0 10.0 0.00 0.00 0.00 46 976.0
20260504175010 69 100 4.0 9.0 0.00 0.00 0.00 49 976.4
20260504174508 69 97 5.0 10.0 0.00 0.00 0.00 48 976.5
20260504174005 68 165 5.0 13.0 0.00 0.00 0.00 51 976.5
20260504173501 69 161 1.0 8.0 0.00 0.00 0.00 48 976.8
20260504172959 68 149 2.0 8.0 0.00 0.00 0.00 52 976.7
20260504172454 67 192 3.0 9.0 0.00 0.00 0.00 50 977.0
20260504171951 67 225 3.0 6.0 0.00 0.00 0.00 50 977.0
20260504171448 66 130 5.0 8.0 0.00 0.00 0.00 51 976.9
20260504170945 67 76 7.0 10.0 0.00 0.00 0.00 52 977.1
20260504170441 67 124 2.0 7.0 0.00 0.00 0.00 52 977.2
20260504160401 64 134 2.0 6.0 0.00 0.00 0.00 55 978.6
20260504150825 64 204 4.0 6.0 0.00 0.00 0.00 53 978.3
20260504150322 64 59 3.0 6.0 0.00 0.00 0.00 51 978.4
20260504141252 64 126 4.0 10.0 0.00 0.00 0.00 52 978.5
20260504140748 63 273 2.0 4.0 0.00 0.00 0.00 48 978.5
20260504140244 63 154 6.0 9.0 0.00 0.00 0.00 50 978.5
20260504130713 60 106 3.0 3.0 0.00 0.00 0.00 51 978.5
20260504130209 60 111 3.0 6.0 0.00 0.00 0.00 52 978.5
20260504120133 51 101 0.0 0.0 0.00 0.00 0.00 82 978.5
20260504110600 44 101 0.0 0.0 0.00 0.00 0.00 98 978.7
20260504100522 44 101 0.0 0.0 0.00 0.00 0.00 97 979.0
20260504081915 46 101 0.0 0.0 0.00 0.00 0.00 93 979.4
20260504081412 46 101 0.0 0.0 0.00 0.00 0.00 93 979.5
20260504080908 46 101 0.0 0.0 0.00 0.00 0.00 92 979.4
20260504080405 46 101 0.0 0.0 0.00 0.00 0.00 92 979.4
20260504070332 47 101 0.0 0.0 0.00 0.00 0.00 80 980.2
20260504050721 43 227 0.0 0.0 0.00 0.00 0.00 88 980.0
20260504050218 43 227 0.0 0.0 0.00 0.00 0.00 86 980.1
20260504045715 43 227 0.0 0.0 0.00 0.00 0.00 88 980.2
20260504045215 44 227 0.0 0.0 0.00 0.00 0.00 89 980.1
20260504044713 44 227 0.0 0.0 0.00 0.00 0.00 88 980.3
20260504044210 44 227 0.0 0.0 0.00 0.00 0.00 87 980.0
20260504043707 44 227 0.0 0.0 0.00 0.00 0.00 85 980.0
20260504043204 44 227 0.0 0.0 0.00 0.00 0.00 85 980.1
20260504042701 44 227 0.0 0.0 0.00 0.00 0.00 86 980.1
20260504042158 44 227 0.0 0.0 0.00 0.00 0.00 85 980.2
20260504041653 44 227 0.0 0.0 0.00 0.00 0.00 84 979.9
20260504041149 44 227 0.0 0.0 0.00 0.00 0.00 82 980.1
20260504040647 44 227 0.0 0.0 0.00 0.00 0.00 85 980.2
20260504040144 45 227 0.0 0.0 0.00 0.00 0.00 85 980.2
20260504035640 45 227 0.0 0.0 0.00 0.00 0.00 85 980.2
20260504035137 45 227 0.0 0.0 0.00 0.00 0.00 85 980.2
20260504034635 45 227 0.0 0.0 0.00 0.00 0.00 86 980.0
20260504034132 45 227 0.0 0.0 0.00 0.00 0.00 86 980.2
20260504033629 45 227 0.0 0.0 0.00 0.00 0.00 85 980.2
20260504033127 45 227 0.0 0.0 0.00 0.00 0.00 86 980.2
20260504032623 45 227 0.0 0.0 0.00 0.00 0.00 84 980.2
20260504032120 45 227 0.0 0.0 0.00 0.00 0.00 85 980.1
20260504031618 45 227 0.0 0.0 0.00 0.00 0.00 81 980.3
20260504031114 45 227 0.0 0.0 0.00 0.00 0.00 84 980.1
20260504030611 45 227 0.0 0.0 0.00 0.00 0.00 85 980.2
20260504030108 45 227 0.0 0.0 0.00 0.00 0.00 82 980.2
20260504025604 44 227 0.0 0.0 0.00 0.00 0.00 80 980.3
20260504025101 45 227 0.0 0.0 0.00 0.00 0.00 82 980.3
20260504024558 45 227 0.0 0.0 0.00 0.00 0.00 82 980.3
20260504024055 45 227 0.0 0.0 0.00 0.00 0.00 76 980.2
20260504023551 45 227 0.0 0.0 0.00 0.00 0.00 77 980.3
20260504023047 46 227 0.0 0.0 0.00 0.00 0.00 78 980.4
20260504022543 46 227 0.0 0.0 0.00 0.00 0.00 76 980.2
20260504022040 46 227 0.0 0.0 0.00 0.00 0.00 76 980.3
20260504021537 47 227 0.0 0.0 0.00 0.00 0.00 81 980.5
20260504021034 47 227 0.0 0.0 0.00 0.00 0.00 78 980.3
20260504020531 47 227 0.0 0.0 0.00 0.00 0.00 79 980.2
20260504020028 47 227 0.0 0.0 0.00 0.00 0.00 78 980.3
20260504015524 47 227 0.0 0.0 0.00 0.00 0.00 78 980.4
20260504015020 48 227 0.0 0.0 0.00 0.00 0.00 78 980.3
20260504014516 48 227 0.0 0.0 0.00 0.00 0.00 78 980.3
20260504014014 48 227 0.0 0.0 0.00 0.00 0.00 76 980.2
20260504013512 48 227 0.0 0.0 0.00 0.00 0.00 74 980.3
20260504013008 48 227 0.0 0.0 0.00 0.00 0.00 75 980.4
20260504012506 48 227 0.0 0.0 0.00 0.00 0.00 74 980.3
20260504012004 48 227 0.0 0.0 0.00 0.00 0.00 76 980.1
20260504011500 48 227 0.0 0.0 0.00 0.00 0.00 73 980.3
20260504010955 48 227 0.0 0.0 0.00 0.00 0.00 71 980.4
20260504010452 49 227 0.0 0.0 0.00 0.00 0.00 75 980.1
20260504005947 49 227 0.0 0.0 0.00 0.00 0.00 67 980.2
20260504005444 49 227 0.0 0.0 0.00 0.00 0.00 70 980.2
20260504004942 49 227 0.0 0.0 0.00 0.00 0.00 64 980.2
20260504004440 49 227 0.0 0.0 0.00 0.00 0.00 67 979.8
20260504003937 49 227 0.0 0.0 0.00 0.00 0.00 66 980.1
20260504003433 49 227 0.0 0.0 0.00 0.00 0.00 62 979.9
20260504002930 50 227 0.0 0.0 0.00 0.00 0.00 68 979.9
20260504002427 50 227 0.0 0.0 0.00 0.00 0.00 62 980.0
20260504001924 50 227 0.0 0.0 0.00 0.00 0.00 59 980.2
20260504001422 51 227 0.0 0.0 0.00 0.00 0.00 61 980.0
20260504000918 51 227 1.0 1.0 0.00 0.00 0.00 51 979.8
20260504000416 52 227 1.0 2.0 0.00 0.00 0.00 58 980.0
20260503235912 52 168 1.0 1.0 0.00 0.00 0.00 49 980.0
20260503235410 53 161 0.0 1.0 0.00 0.00 0.00 49 980.1
20260503234908 54 161 0.0 1.0 0.00 0.00 0.00 50 980.1
20260503234405 53 156 2.0 3.0 0.00 0.00 0.00 47 979.9
20260503233903 53 231 1.0 2.0 0.00 0.00 0.00 51 980.1
20260503233359 53 231 1.0 2.0 0.00 0.00 0.00 45 980.0
20260503232855 54 230 0.0 3.0 0.00 0.00 0.00 39 980.1
20260503232353 55 229 1.0 2.0 0.00 0.00 0.00 38 980.2
20260503231850 55 253 0.0 1.0 0.00 0.00 0.00 42 980.1
20260503231347 56 265 0.0 3.0 0.00 0.00 0.00 40 980.1
20260503230843 56 251 2.0 3.0 0.00 0.00 0.00 39 980.1
20260503230340 56 125 2.0 3.0 0.00 0.00 0.00 41 980.2
20260503225838 56 172 2.0 2.0 0.00 0.00 0.00 35 980.3
20260503225333 57 236 0.0 3.0 0.00 0.00 0.00 35 980.2
20260503224830 58 130 4.0 4.0 0.00 0.00 0.00 35 980.3
20260503224327 58 127 0.0 2.0 0.00 0.00 0.00 36 980.3
20260503223825 59 38 0.0 1.0 0.00 0.00 0.00 36 980.4
20260503223323 60 178 1.0 1.0 0.00 0.00 0.00 33 980.4
20260503222818 59 90 1.0 2.0 0.00 0.00 0.00 34 980.2
20260503222317 59 241 3.0 4.0 0.00 0.00 0.00 34 980.2
20260503221814 58 210 0.0 3.0 0.00 0.00 0.00 37 980.1
20260503221313 59 97 2.0 3.0 0.00 0.00 0.00 35 980.2
20260503220808 59 211 1.0 2.0 0.00 0.00 0.00 32 980.2
20260503220306 59 222 0.0 1.0 0.00 0.00 0.00 34 980.3
20260503215802 59 222 1.0 6.0 0.00 0.00 0.00 38 980.3
20260503215259 59 156 1.0 3.0 0.00 0.00 0.00 36 980.3
20260503214757 59 200 2.0 4.0 0.00 0.00 0.00 33 980.0
20260503214254 59 124 3.0 4.0 0.00 0.00 0.00 33 980.2
20260503213752 60 248 2.0 2.0 0.00 0.00 0.00 33 980.0
20260503213249 60 157 0.0 1.0 0.00 0.00 0.00 37 980.1
20260503212745 60 157 1.0 3.0 0.00 0.00 0.00 35 980.2
20260503212243 60 230 2.0 3.0 0.00 0.00 0.00 32 980.2
20260503211741 60 115 0.0 3.0 0.00 0.00 0.00 35 980.1
20260503211237 59 104 5.0 8.0 0.00 0.00 0.00 35 980.1
20260503210732 59 324 1.0 2.0 0.00 0.00 0.00 35 980.3
20260503210230 58 4 3.0 4.0 0.00 0.00 0.00 34 980.4
20260503205725 58 12 8.0 9.0 0.00 0.00 0.00 32 980.5
20260503205221 59 304 3.0 7.0 0.00 0.00 0.00 33 980.6
20260503204718 59 286 4.0 6.0 0.00 0.00 0.00 33 980.6
20260503204216 60 293 2.0 2.0 0.00 0.00 0.00 32 980.6
20260503203713 59 194 0.0 4.0 0.00 0.00 0.00 32 980.8
20260503203211 60 164 5.0 7.0 0.00 0.00 0.00 34 980.7
20260503202708 59 340 2.0 6.0 0.00 0.00 0.00 32 981.0
20260503202205 58 260 4.0 4.0 0.00 0.00 0.00 34 981.1
20260503201703 59 77 3.0 6.0 0.00 0.00 0.00 36 981.0
20260503201200 59 80 3.0 4.0 0.00 0.00 0.00 33 980.9
20260503200656 59 77 5.0 7.0 0.00 0.00 0.00 32 981.1
20260503200153 60 293 5.0 11.0 0.00 0.00 0.00 34 981.2
20260503195650 59 110 4.0 6.0 0.00 0.00 0.00 35 981.3
20260503195147 58 300 1.0 3.0 0.00 0.00 0.00 34 981.4
20260503194644 58 337 5.0 7.0 0.00 0.00 0.00 33 981.7
20260503194139 59 327 2.0 7.0 0.00 0.00 0.00 37 981.7
20260503193637 57 104 1.0 6.0 0.00 0.00 0.00 33 981.7
20260503193132 59 174 3.0 6.0 0.00 0.00 0.00 38 981.9
20260503192628 58 197 0.0 3.0 0.00 0.00 0.00 34 981.8
20260503192123 58 140 4.0 11.0 0.00 0.00 0.00 33 981.9
20260503191621 58 279 4.0 9.0 0.00 0.00 0.00 35 982.1
20260503191118 59 198 2.0 7.0 0.00 0.00 0.00 34 982.2
20260503190615 59 70 3.0 7.0 0.00 0.00 0.00 40 981.9
20260503190111 58 45 1.0 4.0 0.00 0.00 0.00 38 982.0
20260503185608 58 36 0.0 2.0 0.00 0.00 0.00 36 982.4
20260503185108 57 66 4.0 7.0 0.00 0.00 0.00 38 982.2
20260503184603 57 102 1.0 3.0 0.00 0.00 0.00 36 982.0
20260503184100 57 58 5.0 6.0 0.00 0.00 0.00 36 982.3
20260503183557 57 261 3.0 4.0 0.00 0.00 0.00 34 982.6